FLOCK 4S-29 (47520 NORAD) Tracking and Keplerian Element Data

This shows tracking and keplerian element data for the satellite.

Feedback or suggestion? Click here.




ElementValue
Catalog47520
NameFLOCK 4S-29
Epoch Orbit1257
Epoch Day105.81244131
Epoch Year2021
RAAN168.0034
Inclination97.4923
Eccentricity0.0007449
Argument of Perigee338.4153
Mean Anonmoly21.6762
Mean Motion15.11980783
Decay Rate1.542E-05
L11 47520U 21006DL 21105.81244131 .00001542 00000-0 93595-4 0 9997
L22 47520 97.4923 168.0034 0007449 338.4153 21.6762 15.11980783 12579

Live tracking and technical data element details for FLOCK 4S-29 (NORAD 47520). FLOCK 4S-29 can be tracked NOW for your location showing map with azimuth and elevation plus other details from your city location.

Track the satellite on the map from your city or location and see movement details for azimuth, elevation, latitude, longitude, range, height, and movement on the map or in text.







IsCatalogInMostPopularTable: catalog: 47520, numindb: 15
Update: records affected: 1



GetName: 47520 FLOCK 4S-29

Hit Count: updated at: Fri, 16 Apr 2021 11:30:52 GMT